Home   Weather   Porsgrunn   Past weeks

Flag for Norway Past Weather in Porsgrunn, Norway — Yesterday and Last 2 Weeks

Now
41 °F

Quite cool.


Feels Like: 36 °F
Forecast: 34 / 47 °F
Wind: 8 mph from East

Location: Jomfruland Fyr

Current Time: Apr 28, 2017 at 8:03:06 pm

Latest Report: Apr 28, 2017 at 7:00 pm


Visibility: N/A

Pressure: 29.94 "Hg

Humidity: 90%

Dew Point: 38 °F

Location of PorsgrunnLocation

Past Weather in Porsgrunn — Graph

°F

Porsgrunn Temperature Yesterday

Maximum temperature yesterday: 44 °F (at 2:00 pm)
Minimum temperature yesterday: 34 °F (at 4:00 am)
Average temperature yesterday: 39 °F

High & Low Weather Summary for the Past Weeks

 TemperatureHumidityPressure
High55 °F (Apr 21, 1:00 pm)95% (Apr 17, 8:00 am)30.57 "Hg (Apr 17, 8:00 am)
Low29 °F (Apr 16, 5:00 am)22% (Apr 22, 2:00 pm)29.29 "Hg (Apr 24, 10:00 am)
Average41 °F64%29.90 "Hg
* Reported Apr 13 8:00 pm — Apr 28 6:00 pm, Porsgrunn, Weather by CustomWeather, © 2017

Note: Actual official high and low records may vary slightly from our data, if they occured in-between our weather recording intervals... More about our weather records

Advertising

Porsgrunn Weather History for the Previous 24 Hours

Scroll right to see more
 ConditionsComfort  
Time TempWeatherWind HumidityBarometerVisibility
6:00 pm
Fri, Apr 28
40 °FChilly.9 mph92%29.93 "HgN/A
5:00 pm40 °FQuite cool.10 mph90%29.93 "HgN/A
4:00 pm40 °FQuite cool.10 mph90%29.92 "HgN/A
3:00 pm40 °FChilly.10 mph90%29.92 "HgN/A
2:00 pm38 °FChilly.10 mph93%29.91 "HgN/A
1:00 pm37 °FChilly.9 mph93%29.90 "HgN/A
12:00 pm37 °FChilly.10 mph92%29.88 "HgN/A
11:00 am36 °FChilly.10 mph92%29.87 "HgN/A
10:00 am36 °FChilly.12 mph94%29.86 "HgN/A
9:00 am35 °FChilly.13 mph95%29.85 "HgN/A
8:00 am35 °FChilly.13 mph95%29.86 "HgN/A
7:00 am35 °FChilly.12 mph95%29.86 "HgN/A
6:00 am35 °FChilly.10 mph90%29.86 "HgN/A
5:00 am37 °FChilly.8 mph90%29.85 "HgN/A
4:00 am37 °FChilly.7 mph92%29.85 "HgN/A
3:00 am37 °FChilly.6 mph90%29.87 "HgN/A
2:00 am37 °FChilly.6 mph89%29.86 "HgN/A
1:00 am37 °FChilly.5 mph85%29.87 "HgN/A
12:00 am38 °FChilly.5 mph87%29.86 "HgN/A
11:00 pm
Thu, Apr 27
38 °FChilly.5 mph85%29.86 "HgN/A
10:00 pm39 °FChilly.2 mph87%29.85 "HgN/A
9:00 pm38 °FChilly.2 mph91%29.84 "HgN/A
8:00 pm37 °FChilly.2 mph89%29.84 "HgN/A
Weather by CustomWeather, © 2017

See weather overviewHow to use our weather pages